Weather History for Valdosta Regional, GA

Change the Weather History Date:

Monday, April 22, 2013

  Actual Average Record
Temperature  
Mean Temperature 67 °F 67 °F  
Max Temperature 76 °F 81 °F 91 °F (2011)
Min Temperature 57 °F 54 °F 42 °F (2007)
Degree Days  
Heating Degree Days 0 1  
Month to date heating degree days 21 60  
Since 1 July heating degree days 1164 1626  
Cooling Degree Days 2 4  
Month to date cooling degree days 109 57  
Year to date cooling degree days 212 100  
Growing Degree Days 18 (Base 50)    
Moisture  
Dew Point 54 °F    
Average Humidity 66    
Maximum Humidity 86    
Minimum Humidity 46    
Precipitation  
Precipitation 0.16 in 0.09 in 0.73 in (1951)
Month to date precipitation 5.21 2.34  
Year to date precipitation 13.65 15.94  
Sea Level Pressure  
Sea Level Pressure 30.17 in    
Wind  
Wind Speed 7 mph (ENE)    
Max Wind Speed 15 mph    
Max Gust Speed 21 mph    
Visibility 9 miles    
Events Rain    
T = Trace of Precipitation, MM = Missing Value Source: NWS Daily Summary

Daily Weather History Graph

Daily Weather History Graph

Search for Another Location

Airport:

Trip Planner

Search our weather history database for the weather conditions in past years. The results will help you decide how hot, cold, wet, or windy it might be!

Date:

Astronomy

Apr. 22, 2013 Rise Set
Actual Time 6:57 AM EDT 8:05 PM EDT
Civil Twilight 6:32 AM EDT 8:31 PM EDT
Nautical Twilight 6:02 AM EDT 9:00 PM EDT
Astronomical Twilight 5:32 AM EDT 9:31 PM EDT
Moon 5:05 PM EDT (4/22) 4:38 AM EDT (4/22)
Length of Visible Light 13h 58m
Length of Day
13h 08m
Waxing Gibbous, 87% of the Moon is Illuminated
Apr 22
Waxing Gibbous
Apr 25
Full
May 2
Last Quarter
May 9
New
May 18
First Quarter

Hourly Weather History & Observations

Time (EDT) Temp. Dew Point Humidity Pressure Visibility Wind Dir Wind Speed Gust Speed Precip Events Conditions
12:04 AM 64.4 °F 55.4 °F 73% 30.18 in 6.0 mi ENE 11.5 mph 18.4 mph 0.01 in Rain Light Rain
12:53 AM 62.1 °F 55.9 °F 80% 30.20 in 9.0 mi NE 4.6 mph - 0.02 in   Overcast
1:53 AM 61.0 °F 55.9 °F 83% 30.18 in 6.0 mi ENE 6.9 mph - 0.04 in Rain Light Rain
2:53 AM 61.0 °F 55.9 °F 83% 30.17 in 7.0 mi East 4.6 mph - 0.01 in Rain Light Rain
3:53 AM 61.0 °F 55.9 °F 83% 30.15 in 7.0 mi NE 5.8 mph - 0.01 in Rain Light Rain
4:11 AM 60.8 °F 55.4 °F 82% 30.12 in 8.0 mi ENE 6.9 mph - 0.00 in   Overcast
4:53 AM 60.1 °F 55.9 °F 86% 30.15 in 7.0 mi NE 8.1 mph - 0.01 in Rain Light Rain
5:53 AM 60.1 °F 55.0 °F 83% 30.15 in 5.0 mi NE 10.4 mph - 0.06 in Rain Rain
6:07 AM 60.8 °F 55.4 °F 82% 30.13 in 6.0 mi ENE 8.1 mph - 0.02 in Rain Light Rain
6:53 AM 60.1 °F 55.0 °F 83% 30.17 in 8.0 mi NE 8.1 mph - 0.02 in Rain Light Rain
7:53 AM 60.1 °F 55.0 °F 83% 30.18 in 8.0 mi NE 10.4 mph - 0.01 in   Overcast
8:53 AM 61.0 °F 54.0 °F 78% 30.20 in 10.0 mi NE 9.2 mph - N/A   Overcast
9:53 AM 62.1 °F 53.1 °F 72% 30.21 in 10.0 mi ENE 10.4 mph - N/A   Overcast
10:40 AM 62.6 °F 51.8 °F 68% 30.20 in 10.0 mi East 13.8 mph 20.7 mph N/A   Overcast
10:53 AM 64.0 °F 53.1 °F 67% 30.22 in 10.0 mi ENE 9.2 mph 18.4 mph N/A   Overcast
11:53 AM 64.9 °F 52.0 °F 63% 30.22 in 10.0 mi NE 10.4 mph - N/A   Overcast
12:53 PM 66.9 °F 52.0 °F 59% 30.21 in 10.0 mi ENE 10.4 mph 17.3 mph N/A   Overcast
1:53 PM 69.1 °F 53.1 °F 57% 30.19 in 10.0 mi NE 12.7 mph 17.3 mph N/A   Overcast
2:19 PM 71.6 °F 53.6 °F 53% 30.17 in 10.0 mi NNE 13.8 mph - N/A   Overcast
2:53 PM 71.1 °F 53.1 °F 53% 30.18 in 10.0 mi ENE 10.4 mph 19.6 mph N/A   Overcast
3:53 PM 72.0 °F 54.0 °F 53% 30.15 in 10.0 mi East 8.1 mph - N/A   Overcast
4:53 PM 73.9 °F 54.0 °F 50% 30.14 in 10.0 mi NE 4.6 mph - N/A   Overcast
5:53 PM 75.0 °F 54.0 °F 48% 30.13 in 10.0 mi East 6.9 mph - N/A   Partly Cloudy
6:53 PM 71.1 °F 54.0 °F 55% 30.13 in 10.0 mi North - - N/A   Mostly Cloudy
7:53 PM 69.1 °F 53.1 °F 57% 30.14 in 10.0 mi East 5.8 mph - N/A   Scattered Clouds
8:53 PM 63.0 °F 53.1 °F 70% 30.15 in 10.0 mi Calm Calm - N/A   Clear
9:53 PM 60.1 °F 53.1 °F 78% 30.17 in 10.0 mi Calm Calm - N/A   Clear
10:53 PM 60.1 °F 53.1 °F 78% 30.18 in 10.0 mi Calm Calm - N/A   Clear
11:53 PM 57.9 °F 53.1 °F 84% 30.19 in 10.0 mi Calm Calm - N/A   Clear